User: anonymous
Location: Veyrier
(46.1830°N, 6.2000°E)
Time: 17:29:22
(UTC+02:00)
Language:

Iridium 98 - Orbit

View from above orbital plane
View from above orbital plane
View from above satellite
View from above satellite

Ground track
Ground track

The orbit data is extracted from the following two-line orbital elements,

1 27451U 02031B   14202.33874716  .00000215  00000-0  58232-4 0  4079
2 27451 086.4462 106.1397 0002911 091.3299 047.6870 14.42945254639082
Epoch (UTC): 21 July 2014 08:07:47
Eccentricity: 0.0002911
inclination: 86.4462°
perigee height: 747 km
apogee height: 751 km
right ascension of ascending node: 106.1397°
argument of perigee: 91.3299°
revolutions per day: 14.42945254
mean anomaly at epoch: 47.6870°
orbit number at epoch: 63908

The dashed part of the orbit path shows where the satellite is in the earth's shadow,  

DLR